Location: Eldred Sherwood Park Lake Dam
(42.9416°N, 93.5655°W)
Time: 11:59:33
(UTC+00:00)

Explorer 11/Cluster Stage 4 - Pass Details

Date: 15 December 2025
Orbit: 463 x 1180 km, 28.8° (Epoch: 13 January)

Event Time Altitude Azimuth Distance (km) Brightness Sun altitude
Rises 00:21:06 0° 225° (SW) 4,040 11.3 -17.7°
Reaches altitude 10° 00:24:52 10° 210° (SSW) 3,040 10.2 -18.3°
Maximum altitude 00:30:00 20° 167° (SSE) 2,291 8.9 -19.3°
Enters shadow 00:33:51 13° 130° (SE) 2,615 8.9 -19.9°
